User: anonymous   Login
Location: Campillo
(40.8621°N, 4.2488°W)
Time: 18:18:48
(UTC+00:00)
Language:

Cosmos 2369 Rocket - Orbit

View from above orbital plane
View from above orbital plane
View from above satellite
View from above satellite

Ground track
Ground track

The orbit data is extracted from the following two-line orbital elements,

1 26070U 00006B   21210.85670992 -.00000073  00000-0 -12795-4 0  9993
2 26070  71.0004  37.1368 0018238 229.3205 130.6333 14.15466385110286
Epoch (UTC): 29 July 2021 20:33:39
Eccentricity: 0.0018238
inclination: 71.0004°
perigee height: 827 km
apogee height: 854 km
right ascension of ascending node: 37.1368°
argument of perigee: 229.3205°
revolutions per day: 14.15466385
mean anomaly at epoch: 130.6333°
orbit number at epoch: 11028

The dashed part of the orbit path shows where the satellite is in the earth's shadow,  

DLR